Home   Weather   Flagstaff   Past weeks

Flag for USA Past Weather in Flagstaff, Arizona, USA — Yesterday and Last 2 Weeks

Now
39 °F

Overcast.


Feels Like: 31 °F
Forecast: 35 / 51 °F
Wind: 14 mph from Southwest

Location: Flagstaff Pulliam Airport

Current Time: Dec 11, 2016 at 1:11:49 am

Latest Report: Dec 11, 2016 at 12:57 am


Visibility: 10 mi

Pressure: 29.97 "Hg (23.12 "Hg at 2103m altitude)

Humidity: 82%

Dew Point: 34 °F

Location of FlagstaffLocation

Past Weather in Flagstaff — Graph

°F

Flagstaff Temperature Yesterday

Maximum temperature yesterday: 50 °F (at 12:57 pm)
Minimum temperature yesterday: 24 °F (at 12:57 am)
Average temperature yesterday: 37 °F

High & Low Weather Summary for the Past Weeks

 TemperatureHumidityPressure
High51 °F (Dec 4, 2:57 pm)100% (Nov 28, 7:57 am)30.36 "Hg (Nov 28, 7:57 am)
Low2 °F (Nov 30, 5:57 am)13% (Dec 4, 11:57 am)29.70 "Hg (Nov 27, 1:57 am)
Average30 °F67%30.01 "Hg
* Reported Nov 25 11:57 pm — Dec 10 11:57 pm, Flagstaff, Weather by CustomWeather, © 2016

Note: Actual official high and low records may vary slightly from our data, if they occured in-between our weather recording intervals... More about our weather records

Advertising

Flagstaff Weather History for the Previous 24 Hours

Scroll right to see more
 ConditionsComfort  
Time TempWeatherWind HumidityBarometerVisibility
11:57 pm
Sat, Dec 10
38 °FOvercast.6 mph83%29.99 "Hg10 mi
10:57 pm37 °FOvercast.7 mph86%30.02 "Hg10 mi
9:57 pm38 °FOvercast.8 mph79%30.05 "Hg10 mi
8:57 pm35 °FPassing clouds.No wind78%30.11 "Hg10 mi
7:57 pm40 °FPassing clouds.5 mph70%30.11 "Hg10 mi
6:57 pm42 °FOvercast.9 mph65%30.09 "Hg10 mi
5:57 pm43 °FOvercast.3 mph62%30.09 "Hg10 mi
4:57 pm45 °FPartly sunny.10 mph58%30.08 "Hg10 mi
3:57 pm47 °FSunny.16 mph54%30.06 "Hg10 mi
2:57 pm49 °FSunny.14 mph48%30.06 "Hg10 mi
1:57 pm50 °FSunny.16 mph46%30.05 "Hg10 mi
12:57 pm50 °FSunny.20 mph46%30.09 "Hg10 mi
11:57 am49 °FSunny.15 mph48%30.11 "Hg10 mi
10:57 am47 °FSunny.13 mph54%30.16 "Hg10 mi
9:57 am41 °FSunny.8 mph74%30.20 "Hg10 mi
8:57 am30 °FSunny.No wind96%30.23 "Hg10 mi
7:57 am26 °FSunny.No wind100%30.25 "Hg10 mi
6:57 am27 °FClear.5 mph96%30.22 "Hg10 mi
5:57 am24 °FClear.5 mph96%30.22 "Hg10 mi
4:57 am26 °FClear.No wind92%30.17 "Hg10 mi
3:57 am24 °FClear.5 mph96%30.19 "Hg10 mi
2:57 am24 °FClear.No wind96%30.18 "Hg10 mi
1:57 am26 °FClear.3 mph92%30.18 "Hg10 mi
Weather by CustomWeather, © 2016

See weather overviewHow to use our weather pages